EW2964 Weather Reports


Display with metric or nautical units.
time (UTC)temp
F
wind
direction
speed
MPH
gust
MPH
rain 1hr
in
rain 24hr
in
rain mn
in
humidity
%
barometer
mb
20210801145542 76 220 1.0 7.0 0.00 0.00 0.00 64 1009.3
20210801145036 76 111 1.0 7.0 0.00 0.00 0.00 65 1009.4
20210801144536 76 215 1.0 8.0 0.00 0.00 0.00 65 1009.4
20210801144036 76 132 1.0 8.0 0.00 0.00 0.00 64 1009.2
20210801143508 76 185 0.0 2.0 0.00 0.00 0.00 63 1009.1
20210801143006 76 189 0.0 2.0 0.00 0.00 0.00 64 1009.1
20210801142507 75 173 0.0 5.0 0.00 0.00 0.00 65 1008.9
20210801141946 76 197 1.0 7.0 0.00 0.00 0.00 64 1008.9
20210801141443 76 211 1.0 7.0 0.00 0.00 0.00 66 1008.9
20210801140946 75 166 2.0 10.0 0.00 0.00 0.00 66 1008.9
20210801140426 75 156 2.0 10.0 0.00 0.00 0.00 66 1008.9
20210801135920 76 115 1.0 8.0 0.00 0.00 0.00 66 1008.9
20210801135408 76 119 2.0 8.0 0.00 0.00 0.00 66 1009.0
20210801134859 75 159 1.0 6.0 0.00 0.00 0.00 67 1009.0
20210801134354 75 0.0 0.0 0.00 0.00 0.00 67
20210801133213 74 188 1.0 6.0 0.00 0.00 0.00 67 1009.1
20210801132616 74 0.0 0.0 0.00 0.00 0.00 68
20210801131431 74 158 1.0 5.0 0.00 0.00 0.00 69 1009.2
20210801130840 74 186 0.0 4.0 0.00 0.00 0.00 69 1009.0
20210801130138 74 112 0.0 5.0 0.00 0.00 0.00 69 1009.0
20210801125527 73 112 0.0 5.0 0.00 0.00 0.00 71 1009.1
20210801124943 73 238 0.0 8.0 0.00 0.00 0.00 71 1009.1
20210801124240 73 125 0.0 0.0 0.00 0.00 0.00 75 1009.4
20210801123732 73 132 1.0 0.0 0.00 0.00 0.00 76 1009.4
20210801123126 72 0.0 0.0 0.00 0.00 0.00 76
20210801115258 67 69 0.0 5.0 0.00 0.00 0.00 73 1009.5
20210801114752 67 316 0.0 0.0 0.00 0.00 0.00 73 1009.5
20210801114248 65 316 0.0 0.0 0.00 0.00 0.00 73 1009.6
20210801112751 63 316 0.0 0.0 0.00 0.00 0.00 74 1009.1
20210801112222 63 316 0.0 0.0 0.00 0.00 0.00 75 1009.1
20210801111725 62 316 0.0 0.0 0.00 0.00 0.00 75 1009.1
20210801111215 62 316 0.0 0.0 0.00 0.00 0.00 75 1009.1
20210801110705 61 316 0.0 0.0 0.00 0.00 0.00 75 1009.1
20210801110200 61 316 0.0 0.0 0.00 0.00 0.00 75 1009.1
20210801105647 61 316 0.0 0.0 0.00 0.00 0.00 75 1009.1
20210801105135 61 316 0.0 0.0 0.00 0.00 0.00 75 1009.1
20210801104607 60 316 0.0 0.0 0.00 0.00 0.00 76 1009.1
20210801104109 60 316 0.0 0.0 0.00 0.00 0.00 76 1009.1
20210801103608 60 316 0.0 0.0 0.00 0.00 0.00 76 1009.1
20210801103102 60 316 0.0 0.0 0.00 0.00 0.00 76 1009.1
20210801102604 59 316 0.0 0.0 0.00 0.00 0.00 77 1009.1
20210801102046 59 316 0.0 0.0 0.00 0.00 0.00 77 1009.1
20210801101532 59 316 0.0 0.0 0.00 0.00 0.00 77 1009.1
20210801101027 59 316 0.0 0.0 0.00 0.00 0.00 77 1009.1
20210801100529 59 316 0.0 0.0 0.00 0.00 0.00 77 1009.1
20210801100021 59 316 0.0 0.0 0.00 0.00 0.00 77 1009.1
20210801095509 59 316 0.0 0.0 0.00 0.00 0.00 77 1009.1
20210801095008 59 316 0.0 0.0 0.00 0.00 0.00 77 1009.1
20210801094452 59 316 0.0 0.0 0.00 0.00 0.00 77 1009.1
20210801093913 59 316 0.0 0.0 0.00 0.00 0.00 77 1009.1
20210801093410 59 316 0.0 0.0 0.00 0.00 0.00 77 1009.1
20210801092906 60 316 0.0 0.0 0.00 0.00 0.00 77 1009.1
20210801092408 60 316 0.0 0.0 0.00 0.00 0.00 77 1009.1
20210801091852 60 316 0.0 0.0 0.00 0.00 0.00 77 1009.1
20210801091350 60 316 0.0 0.0 0.00 0.00 0.00 77 1009.1
20210801090839 60 316 0.0 0.0 0.00 0.00 0.00 77 1009.1
20210801090313 60 316 0.0 0.0 0.00 0.00 0.00 77 1009.1
20210801085816 60 316 0.0 0.0 0.00 0.00 0.00 78 1009.1
20210801085306 60 316 0.0 0.0 0.00 0.00 0.00 78 1009.1
20210801084805 60 316 0.0 0.0 0.00 0.00 0.00 78 1009.1
20210801084223 60 316 0.0 0.0 0.00 0.00 0.00 78 1009.2
20210801083708 60 316 0.0 0.0 0.00 0.00 0.00 78 1009.2
20210801083200 60 316 0.0 0.0 0.00 0.00 0.00 78 1009.2
20210801082622 60 316 0.0 0.0 0.00 0.00 0.00 78 1009.2
20210801082050 60 316 0.0 0.0 0.00 0.00 0.00 78 1009.2
20210801081546 60 316 0.0 0.0 0.00 0.00 0.00 78 1009.2
20210801081011 60 316 0.0 0.0 0.00 0.00 0.00 78 1009.1
20210801080416 60 316 0.0 0.0 0.00 0.00 0.00 78 1009.1
20210801075829 61 316 0.0 0.0 0.00 0.00 0.00 78 1009.0
20210801075315 61 316 0.0 0.0 0.00 0.00 0.00 78 1009.0
20210801074759 61 316 0.0 0.0 0.00 0.00 0.00 78 1009.0
20210801074304 61 316 0.0 0.0 0.00 0.00 0.00 78 1009.0
20210801073738 61 316 0.0 0.0 0.00 0.00 0.00 78 1009.0
20210801073240 61 316 0.0 0.0 0.00 0.00 0.00 78 1009.0
20210801072705 61 316 0.0 0.0 0.00 0.00 0.00 78 1008.9
20210801072211 61 316 0.0 0.0 0.00 0.00 0.00 78 1008.9
20210801071653 61 316 0.0 0.0 0.00 0.00 0.00 79 1008.9
20210801071144 61 316 0.0 0.0 0.00 0.00 0.00 79 1008.9
20210801070618 61 316 0.0 0.0 0.00 0.00 0.00 79 1008.9
20210801070111 61 316 0.0 0.0 0.00 0.00 0.00 79 1008.9
20210801065608 61 316 0.0 0.0 0.00 0.00 0.00 79 1009.0
20210801065101 61 316 0.0 0.0 0.00 0.00 0.00 79 1010.1
20210801064602 61 316 0.0 0.0 0.00 0.00 0.00 79 1010.1
20210801064032 61 316 0.0 0.0 0.00 0.00 0.00 79 1010.1
20210801063505 61 316 0.0 0.0 0.00 0.00 0.00 79 1010.1
20210801062948 61 316 0.0 0.0 0.00 0.00 0.00 79 1010.1
20210801062439 61 316 0.0 0.0 0.00 0.00 0.00 79 1010.1
20210801061904 61 316 0.0 0.0 0.00 0.00 0.00 79 1010.1
20210801061310 61 316 0.0 0.0 0.00 0.00 0.00 79 1010.1
20210801060806 61 316 0.0 0.0 0.00 0.00 0.00 79 1010.1
20210801060304 61 316 0.0 0.0 0.00 0.00 0.00 80 1010.1
20210801055800 61 316 0.0 0.0 0.00 0.00 0.00 80 1010.1
20210801055208 61 316 0.0 0.0 0.00 0.00 0.00 80 1010.1
20210801054659 61 316 0.0 0.0 0.00 0.00 0.00 80 1010.1
20210801054158 61 316 0.0 0.0 0.00 0.00 0.00 80 1010.1
20210801053618 61 316 0.0 0.0 0.00 0.00 0.00 80 1010.1
20210801053110 61 316 0.0 0.0 0.00 0.00 0.00 80 1010.1
20210801052551 61 316 0.0 0.0 0.00 0.00 0.00 80 1010.1
20210801052041 61 316 0.0 0.0 0.00 0.00 0.00 80 1010.1
20210801051535 61 316 0.0 0.0 0.00 0.00 0.00 80 1010.1
20210801051010 61 316 0.0 0.0 0.00 0.00 0.00 80 1010.1
20210801050504 62 316 0.0 0.0 0.00 0.00 0.00 80 1010.1
20210801050011 62 316 0.0 0.0 0.00 0.00 0.00 80 1010.1
20210801045451 61 316 0.0 0.0 0.00 0.00 0.00 81 1010.1
20210801044904 61 316 0.0 0.0 0.00 0.00 0.00 81 1010.1
20210801044358 61 316 0.0 0.0 0.00 0.00 0.00 81 1010.1
20210801043821 61 316 0.0 0.0 0.00 0.00 0.00 81 1010.1
20210801043256 61 316 0.0 0.0 0.00 0.00 0.00 81 1010.1
20210801042741 62 316 0.0 0.0 0.00 0.00 0.00 81 1010.1
20210801042242 62 316 0.0 0.0 0.00 0.00 0.00 81 1010.2
20210801041719 62 316 0.0 0.0 0.00 0.00 0.00 81 1010.2
20210801041214 62 316 0.0 0.0 0.00 0.00 0.00 81 1010.2
20210801040708 62 316 0.0 0.0 0.00 0.00 0.00 81 1010.2
20210801040158 62 316 0.0 0.0 0.00 0.00 0.00 81 1010.2
20210801035656 62 316 0.0 0.0 0.00 0.00 0.00 81 1010.2
20210801035148 62 316 0.0 0.0 0.00 0.00 0.00 80 1010.2
20210801034646 62 316 0.0 0.0 0.00 0.00 0.00 80 1010.2
20210801034135 62 316 0.0 0.0 0.00 0.00 0.00 80 1010.2
20210801033614 62 316 0.0 0.0 0.00 0.00 0.00 80 1010.2
20210801033109 62 316 0.0 0.0 0.00 0.00 0.00 80 1010.2
20210801032558 62 316 0.0 0.0 0.00 0.00 0.00 80 1010.2
20210801032057 62 316 0.0 0.0 0.00 0.00 0.00 80 1010.2
20210801031507 63 316 0.0 0.0 0.00 0.00 0.00 80 1010.2
20210801031006 63 316 0.0 0.0 0.00 0.00 0.00 80 1010.2
20210801030440 63 316 0.0 0.0 0.00 0.00 0.00 80 1010.2
20210801025918 63 316 0.0 0.0 0.00 0.00 0.00 80 1010.2
20210801025415 63 316 0.0 0.0 0.00 0.00 0.00 80 1010.2
20210801024848 63 316 0.0 0.0 0.00 0.00 0.00 79 1010.2
20210801024340 63 316 0.0 0.0 0.00 0.00 0.00 79 1010.2
20210801023834 64 316 0.0 0.0 0.00 0.00 0.00 79 1010.2
20210801023326 64 316 0.0 0.0 0.00 0.00 0.00 79 1010.2
20210801022827 64 316 0.0 0.0 0.00 0.00 0.00 79 1010.2
20210801022310 64 316 0.0 0.0 0.00 0.00 0.00 78 1010.2
20210801021809 64 316 0.0 0.0 0.00 0.00 0.00 78 1010.2
20210801021306 64 316 0.0 0.0 0.00 0.00 0.00 78 1010.2
20210801020747 65 316 0.0 0.0 0.00 0.00 0.00 77 1010.2
20210801020237 65 316 0.0 0.0 0.00 0.00 0.00 77 1010.2
20210801015723 65 316 0.0 0.0 0.00 0.00 0.00 77 1010.2
20210801015213 65 316 0.0 0.0 0.00 0.00 0.00 77 1010.2
20210801014652 65 316 0.0 0.0 0.00 0.00 0.00 77 1010.2
20210801014127 65 316 0.0 0.0 0.00 0.00 0.00 76 1010.0
20210801013616 65 316 0.0 0.0 0.00 0.00 0.00 76 1010.0
20210801013109 66 316 0.0 0.0 0.00 0.00 0.00 76 1010.0
20210801012608 66 316 0.0 0.0 0.00 0.00 0.00 76 1010.0
20210801012111 66 316 0.0 0.0 0.00 0.00 0.00 76 1010.0
20210801011557 66 316 0.0 0.0 0.00 0.00 0.00 75 1010.0
20210801011053 66 316 0.0 0.0 0.00 0.00 0.00 75 1010.0
20210801010548 66 316 0.0 0.0 0.00 0.00 0.00 74 1009.6
20210801010057 67 316 0.0 0.0 0.00 0.00 0.00 74 1009.6
20210801005543 67 316 0.0 0.0 0.00 0.00 0.00 73 1009.6
20210801005044 67 316 0.0 0.0 0.00 0.00 0.00 73 1009.6
20210801004531 67 316 0.0 0.0 0.00 0.00 0.00 72 1009.6
20210801004016 67 316 0.0 0.0 0.00 0.00 0.00 71 1009.6
20210801003508 68 316 0.0 0.0 0.00 0.00 0.00 70 1009.5
20210801002947 68 316 0.0 0.0 0.00 0.00 0.00 69 1009.5
20210801002427 68 316 0.0 0.0 0.00 0.00 0.00 68 1009.5
20210801001918 69 316 0.0 0.0 0.00 0.00 0.00 67 1009.5
20210801001410 69 316 0.0 0.0 0.00 0.00 0.00 66 1009.5
20210801000847 69 316 0.0 0.0 0.00 0.00 0.00 65 1009.5
20210801000340 70 316 0.0 0.0 0.00 0.00 0.00 64 1009.4
20210731235803 70 316 0.0 0.0 0.00 0.00 0.00 63 1009.4
20210731235255 71 316 0.0 0.0 0.00 0.00 0.00 61 1009.4
20210731234750 71 316 0.0 0.0 0.00 0.00 0.00 61 1009.4
20210731234209 72 316 0.0 0.0 0.00 0.00 0.00 59 1009.4
20210731233709 72 316 0.0 0.0 0.00 0.00 0.00 58 1009.4
20210731233159 72 316 0.0 0.0 0.00 0.00 0.00 57 1009.2
20210731232651 73 316 0.0 0.0 0.00 0.00 0.00 56 1009.2
20210731232137 73 316 0.0 3.0 0.00 0.00 0.00 56 1009.2
20210731231620 73 316 0.0 3.0 0.00 0.00 0.00 55 1009.2
20210731231110 73 316 0.0 1.0 0.00 0.00 0.00 55 1009.2
20210731230556 73 316 0.0 0.0 0.00 0.00 0.00 54 1009.3
20210731230056 73 316 1.0 4.0 0.00 0.00 0.00 53 1009.3
20210731225531 74 316 1.0 4.0 0.00 0.00 0.00 53 1009.3
20210731225020 74 325 0.0 2.0 0.00 0.00 0.00 52 1009.3
20210731224510 74 0 0.0 1.0 0.00 0.00 0.00 51 1009.3
20210731224010 74 0 1.0 6.0 0.00 0.00 0.00 51 1009.3
20210731223501 74 9 1.0 6.0 0.00 0.00 0.00 51 1009.3
20210731222952 74 35 1.0 6.0 0.00 0.00 0.00 50 1009.3
20210731222419 74 294 2.0 6.0 0.00 0.00 0.00 50 1009.3
20210731221915 74 14 2.0 9.0 0.00 0.00 0.00 50 1009.3
20210731221404 74 271 2.0 11.0 0.00 0.00 0.00 49 1009.3
20210731220905 74 325 2.0 11.0 0.00 0.00 0.00 49 1009.3
20210731220404 74 261 2.0 9.0 0.00 0.00 0.00 49 1009.3
20210731215904 74 5 2.0 9.0 0.00 0.00 0.00 48 1009.3
20210731215400 75 20 1.0 10.0 0.00 0.00 0.00 48 1009.3
20210731214900 75 246 2.0 10.0 0.00 0.00 0.00 47 1009.3
20210731214359 75 9 2.0 9.0 0.00 0.00 0.00 46 1009.3
20210731213856 76 338 1.0 9.0 0.00 0.00 0.00 46 1009.3
20210731213350 76 332 1.0 8.0 0.00 0.00 0.00 47 1009.4
20210731212840 76 236 1.0 6.0 0.00 0.00 0.00 47 1009.7
20210731212336 76 255 1.0 6.0 0.00 0.00 0.00 46 1009.7
20210731211809 76 313 1.0 7.0 0.00 0.00 0.00 48 1009.7
20210731211308 76 294 1.0 7.0 0.00 0.00 0.00 47 1009.7
20210731210800 76 303 1.0 9.0 0.00 0.00 0.00 48 1009.7
20210731210257 76 346 2.0 9.0 0.00 0.00 0.00 48 1009.7
20210731205758 75 232 2.0 12.0 0.00 0.00 0.00 48 1009.7
20210731205255 75 19 2.0 12.0 0.00 0.00 0.00 48 1009.7
20210731204755 76 26 2.0 9.0 0.00 0.00 0.00 47 1009.7
20210731204253 76 12 2.0 9.0 0.00 0.00 0.00 46 1009.7
20210731203751 76 266 2.0 10.0 0.00 0.00 0.00 46 1009.7
20210731203254 76 264 1.0 10.0 0.00 0.00 0.00 47 1009.7
20210731202747 76 355 1.0 7.0 0.00 0.00 0.00 47 1009.7
20210731202246 76 319 1.0 7.0 0.00 0.00 0.00 47 1009.7
20210731201744 76 355 1.0 7.0 0.00 0.00 0.00 48 1009.7
20210731201217 76 270 1.0 8.0 0.00 0.00 0.00 48 1009.7
20210731200706 75 311 2.0 8.0 0.00 0.00 0.00 47 1010.4
20210731200202 75 13 2.0 8.0 0.00 0.00 0.00 47 1010.4
20210731195657 75 355 2.0 8.0 0.00 0.00 0.00 49 1010.4
20210731195153 75 26 2.0 8.0 0.00 0.00 0.00 48 1010.4
20210731194655 75 5 2.0 13.0 0.00 0.00 0.00 49 1010.4
20210731194149 76 13 2.0 13.0 0.00 0.00 0.00 49 1010.4
20210731193623 77 269 1.0 8.0 0.00 0.00 0.00 48 1010.4
20210731193122 76 17 1.0 6.0 0.00 0.00 0.00 49 1010.4
20210731192614 76 236 1.0 6.0 0.00 0.00 0.00 49 1010.4
20210731192053 77 236 1.0 5.0 0.00 0.00 0.00 48 1010.4
20210731191550 76 350 1.0 6.0 0.00 0.00 0.00 49 1010.4
20210731191052 76 355 2.0 9.0 0.00 0.00 0.00 50 1010.4
20210731190539 76 5 1.0 9.0 0.00 0.00 0.00 50 1010.4
20210731190047 75 215 0.0 6.0 0.00 0.00 0.00 50 1010.4
20210731185541 75 355 1.0 12.0 0.00 0.00 0.00 51 1010.4
20210731185027 75 0 2.0 12.0 0.00 0.00 0.00 51 1010.4
20210731184500 75 10 3.0 6.0 0.00 0.00 0.00 52 1010.4
20210731183957 75 323 2.0 8.0 0.00 0.00 0.00 50 1010.4
20210731183456 75 259 1.0 8.0 0.00 0.00 0.00 50 1010.4
20210731182950 75 275 2.0 9.0 0.00 0.00 0.00 49 1010.4
20210731182438 75 220 1.0 9.0 0.00 0.00 0.00 50 1010.4
20210731181937 75 316 1.0 7.0 0.00 0.00 0.00 52 1010.4
20210731181425 75 5 2.0 8.0 0.00 0.00 0.00 50 1010.4
20210731180925 75 5 1.0 8.0 0.00 0.00 0.00 50 1010.4
20210731180416 75 270 1.0 7.0 0.00 0.00 0.00 50 1010.4
20210731175913 75 265 2.0 10.0 0.00 0.00 0.00 51 1010.4
20210731175410 75 267 2.0 10.0 0.00 0.00 0.00 51 1010.4
20210731174852 74 260 1.0 9.0 0.00 0.00 0.00 53 1010.4
20210731174350 74 342 2.0 10.0 0.00 0.00 0.00 53 1010.4
20210731173830 74 259 2.0 8.0 0.00 0.00 0.00 50 1010.4
20210731173329 74 245 2.0 8.0 0.00 0.00 0.00 51 1010.4
20210731172823 74 331 1.0 7.0 0.00 0.00 0.00 50 1010.4
20210731172319 74 225 0.0 6.0 0.00 0.00 0.00 51 1010.4
20210731171820 74 225 1.0 6.0 0.00 0.00 0.00 51 1010.4
20210731171314 74 279 2.0 7.0 0.00 0.00 0.00 52 1011.0
20210731170817 74 18 2.0 9.0 0.00 0.00 0.00 51 1011.0
20210731170315 74 257 1.0 9.0 0.00 0.00 0.00 51 1011.0
20210731165745 74 347 1.0 8.0 0.00 0.00 0.00 52 1011.0
20210731165241 73 10 0.0 8.0 0.00 0.00 0.00 52 1011.0
20210731164748 73 285 1.0 7.0 0.00 0.00 0.00 52 1011.0
20210731164242 73 289 3.0 7.0 0.00 0.00 0.00 51 1011.0
20210731163739 72 211 2.0 6.0 0.00 0.00 0.00 52 1011.0
20210731163234 72 355 1.0 8.0 0.00 0.00 0.00 54 1011.0
20210731162734 72 281 2.0 10.0 0.00 0.00 0.00 52 1011.0
20210731162236 72 19 3.0 10.0 0.00 0.00 0.00 53 1011.0
20210731161736 72 248 3.0 7.0 0.00 0.00 0.00 54 1011.2
20210731161234 71 0 2.0 7.0 0.00 0.00 0.00 55 1011.2
20210731160731 71 273 2.0 6.0 0.00 0.00 0.00 55 1011.2
20210731160230 71 34 2.0 11.0 0.00 0.00 0.00 56 1011.2
20210731155725 71 275 3.0 11.0 0.00 0.00 0.00 57 1011.0
20210731155223 71 34 2.0 11.0 0.00 0.00 0.00 56 1011.0
20210731154724 71 311 2.0 7.0 0.00 0.00 0.00 56 1011.0
20210731154223 71 317 2.0 7.0 0.00 0.00 0.00 57 1011.1
20210731153718 71 344 1.0 7.0 0.00 0.00 0.00 60 1011.1
20210731153216 71 246 1.0 6.0 0.00 0.00 0.00 59 1011.1
20210731152719 71 246 1.0 6.0 0.00 0.00 0.00 58 1011.1
20210731152210 71 246 0.0 2.0 0.00 0.00 0.00 58 1011.1
20210731151658 71 246 1.0 5.0 0.00 0.00 0.00 57 1011.1
20210731151159 71 246 1.0 5.0 0.00 0.00 0.00 58 1011.1
20210731150656 71 246 1.0 5.0 0.00 0.00 0.00 57 1011.1
20210731150141 70 246 2.0 7.0 0.00 0.00 0.00 58 1011.1